Weather History for CWGN - May, 2013

Change the Weather History Date:

Friday, May 31, 2013

  Actual Average Record
Temperature  
Mean Temperature 52 °F -  
Max Temperature 55 °F - - ()
Min Temperature 46 °F - - ()
Degree Days  
Heating Degree Days 14    
Growing Degree Days 2 (Base 50)    
Moisture  
Dew Point 50 °F    
Average Humidity 90    
Maximum Humidity 94    
Minimum Humidity 82    
Precipitation  
Precipitation 0.39 in - - ()
Sea Level Pressure  
Sea Level Pressure 29.53 in    
Wind  
Wind Speed 18 mph ()    
Max Wind Speed 26 mph    
Max Gust Speed 34 mph    
T = Trace of Precipitation, MM = Missing Value Source: Averaged Metar Reports

Daily Weather History Graph

Daily Weather History Graph

Search for Another Location

Airport or City:

Trip Planner

Search our weather history database for the weather conditions in past years. The results will help you decide how hot, cold, wet, or windy it might be!

Date:

Astronomy

May. 31, 2013 Rise Set
Actual Time 5:30 AM CDT 9:25 PM CDT
Civil Twilight 4:49 AM CDT 10:06 PM CDT
Nautical Twilight 3:53 AM CDT 11:04 PM CDT
Astronomical Twilight 2:22 AM CDT 12:37 AM CDT
Moon 1:35 AM CDT (5/31) 1:15 PM CDT (5/31)
Length of Visible Light 17h 16m
Length of Day
15h 54m
Waning Gibbous, 51% of the Moon is Illuminated
May 31
Waning Gibbous
May 31
Last Quarter
Jun 8
New
Jun 16
First Quarter
Jun 23
Full

Hourly Weather History & Observations

Time (CDT) Temp. Windchill Dew Point Humidity Pressure Visibility Wind Dir Wind Speed Gust Speed Precip Events Conditions
12:00 AM 55.4 °F - 53.6 °F 94% 29.51 in - ENE 18.4 mph - N/A   Unknown
1:00 AM 55 °F - 53 °F 92% 29.51 in - ENE 15.0 mph - -  
1:00 AM 55.4 °F - 53.6 °F 94% 29.51 in - ENE 15.0 mph - N/A   Unknown
2:00 AM 55.4 °F - 53.6 °F 94% 29.49 in - NE 18.4 mph - N/A   Unknown
3:00 AM 53.6 °F - 51.8 °F 94% 29.47 in - ENE 17.3 mph - N/A   Unknown
4:00 AM 53 °F - 51 °F 88% 29.44 in - NE 19.6 mph - -  
4:00 AM 53.6 °F - 50.0 °F 88% 29.44 in - NE 19.6 mph - N/A   Unknown
5:00 AM 51.8 °F - 50.0 °F 94% 29.44 in - ENE 19.6 mph - N/A   Unknown
6:00 AM 51.8 °F - 50.0 °F 94% 29.43 in - NE 16.1 mph - N/A   Unknown
7:00 AM 52 °F - 50 °F 89% 29.42 in - NE 19.6 mph - -  
7:00 AM 51.8 °F - 50.0 °F 94% 29.42 in - NE 19.6 mph - N/A   Unknown
8:00 AM 51.8 °F - 50.0 °F 94% 29.43 in - ENE 18.4 mph - N/A   Unknown
9:00 AM 51.8 °F - 50.0 °F 94% 29.44 in - NE 18.4 mph - N/A   Unknown
10:00 AM 52 °F - 50 °F 91% 29.45 in - NE 19.6 mph - -  
10:00 AM 51.8 °F - 50.0 °F 94% 29.45 in - NE 19.6 mph - N/A   Unknown
11:00 AM 53.6 °F - 50.0 °F 88% 29.46 in - NE 18.4 mph 24.2 mph N/A   Unknown
12:00 PM 53.6 °F - 50.0 °F 88% 29.48 in - NE 20.7 mph - N/A   Unknown
1:00 PM 53 °F - 51 °F 88% 29.50 in - NE 20.7 mph - -  
1:00 PM 53.6 °F - 50.0 °F 88% 29.50 in - NE 20.7 mph - N/A   Unknown
2:00 PM 53.6 °F - 51.8 °F 94% 29.51 in - NE 23.0 mph 29.9 mph N/A   Unknown
3:00 PM 55.4 °F - 51.8 °F 88% 29.54 in - NE 24.2 mph 31.1 mph N/A   Unknown
4:00 PM 54 °F - 51 °F 86% 29.55 in - NNE 26.5 mph - -  
4:00 PM 53.6 °F - 51.8 °F 94% 29.55 in - NNE 26.5 mph 33.4 mph N/A   Unknown
5:00 PM 53.6 °F - 50.0 °F 88% 29.59 in - NNE 26.5 mph 34.5 mph N/A   Unknown
6:00 PM 51.8 °F - 48.2 °F 88% 29.62 in - NNE 26.5 mph 33.4 mph N/A   Unknown
7:00 PM 50 °F - 47 °F 84% 29.65 in - NNE 25.3 mph - -  
7:00 PM 50.0 °F - 46.4 °F 87% 29.65 in - NNE 25.3 mph 33.4 mph N/A   Unknown
8:00 PM 50.0 °F - 46.4 °F 87% 29.68 in - NNE 25.3 mph 33.4 mph N/A   Unknown
9:00 PM 48.2 °F - 44.6 °F 87% 29.71 in - NNE 26.5 mph 33.4 mph N/A   Unknown
10:00 PM 48 °F - 44 °F 82% 29.75 in - NNE 26.5 mph - -  
10:00 PM 48.2 °F - 44.6 °F 87% 29.75 in - NNE 26.5 mph 33.4 mph N/A   Unknown
11:00 PM 46.4 °F 37.7 °F 44.6 °F 93% 29.78 in - NNE 26.5 mph 34.5 mph N/A   Unknown